Tracking 27107 objects as of 22-Mar-2023
HD Live streaming from Space Station
objects crossing your sky now

ANIK A2 (TELESAT 2)

Track ANIK A2 (TELESAT 2) now!
ANIK A2 (TELESAT 2) is classified as:


NORAD ID: 6437
Int'l Code: 1973-023A
Perigee: 35,879.3 km
Apogee: 35,977.5 km
Inclination: 9.7 °
Period: 1,443.0 minutes
Semi major axis: 42299 km
RCS: 3.1458 m2 (large)
Launch date: April 20, 1973
Source: Canada (CA)
Launch site: AIR FORCE EASTERN TEST RANGE (AFETR)
Your satellite tracking list
Your tracking list is empty




NASA's NSSDC Master Catalog

Two Line Element Set (TLE):
1 06437U 73023A   23080.66133039  .00000056  00000-0  00000-0 0  9990
2 06437   9.6616 306.6404 0011600  57.3666 285.8028  0.99793316 35338
Source of the keplerian elements: AFSPC